Regional Weather Roundup
Issued by NWS

Home | Current Version | Previous Version | Text Only | Print | Product List | Glossary Off
Versions: 1 2 3 4 5 6 7 8 9 10 11 12 13 14 15 16 17 18 19 20 21 22 23 24 25 26 27 28 29 30 31 32 33 34 35 36 37 38 39 40 41 42 43 44 45 46 47 48 49 50

000
ASUS43 KMPX 281510
RWRMN
WEATHER ROUNDUP FOR MINNESOTA
NATIONAL WEATHER SERVICE TWIN CITIES/CHANHASSEN MN
1000 AM CDT SAT MAR 28 2015


NOTE: "FAIR" INDICATES FEW OR NO CLOUDS BELOW 12,000 FEET WITH NO
SIGNIFICANT WEATHER AND/OR OBSTRUCTIONS TO VISIBILITY. N/A MEANS
CURRENT SKY AND/OR WEATHER CONDITIONS ARE NOT AVAILABLE.

MNZ060>063-068>070-281600-
   Twin Cities Metro

CITY           SKY/WX    TMP DP  RH WIND       PRES   REMARKS
TWIN CITIES    SUNNY     30  12  47 SE7       30.25F WCI  23
ST PAUL        SUNNY     32  11  41 SE12      30.27F WCI  23
CRYSTAL        SUNNY     32  13  45 SE8       30.23F WCI  25
BLAINE         SUNNY     34  16  47 SE8       30.24S WCI  27
LAKEVILLE      SUNNY     25  12  58 SE7       30.25S WCI  17
EDEN PRAIRIE   SUNNY     31  14  49 SE7       30.24S WCI  24
SOUTH ST PAUL  SUNNY     31  11  43 S8        30.26F WCI  24
LAKE ELMO      FAIR      32  12  43 S8        30.26F WCI  25
$$
MNZ001>005-007-008-013>017-022>024-027-028-281600-
   Northwest Minnesota

CITY           SKY/WX    TMP DP  RH WIND       PRES   REMARKS
BEMIDJI        SUNNY     30  17  57 S7        30.12F WCI  23
HALLOCK        PTSUNNY   30  25  80 S20       30.03F WCI  18
ROSEAU         MOSUNNY   34  21  60 S13       30.06F WCI  25
WARROAD        MOSUNNY   32  19  59 S10       30.08F WCI  24
THIEF RVR FALL SUNNY     30  23  74 S14       30.08F WCI  20
CROOKSTON      MOSUNNY   34  23  64 S17       30.09F WCI  23
FOSSTON        SUNNY     32  19  59 S16       30.10F WCI  21
DETROIT LAKES  SUNNY     32  23  69 S14       30.11F WCI  22
MOORHEAD       SUNNY     36  27  69 S16G23    30.11F
PARK RAPIDS    SUNNY     31  16  54 S10       30.13F WCI  22
MAHNOMEN       FAIR      32  21  63 S17       30.10F WCI  21
$$
MNZ006-009>011-018-025>026-281600-
   North Central Minnesota

CITY           SKY/WX    TMP DP  RH WIND       PRES   REMARKS
BAUDETTE       MOSUNNY   31  16  54 S10       30.09F WCI  22
FLAG ISLAND    MOSUNNY   18  10  73 SE10      30.06F WCI   6
INTL FALLS     SUNNY     30  13  49 SW8       30.13F WCI  22
WASKISH        SUNNY     34  14  44 SE9       30.12F WCI  26
BIG FORK       SUNNY     32  16  51 S9        30.15F WCI  24
LONGVILLE      SUNNY     30  16  55 S8        30.15F WCI  23
GRAND RAPIDS   SUNNY     28  10  47 S10       30.16F WCI  19
CRANE LAKE     SUNNY     25  10  54 S6        30.18F WCI  18
ORR            SUNNY     30  10  43 CALM      30.13F
COOK           SUNNY     30  12  47 S5        30.16F WCI  25
WALKER         FAIR      30  13  49 S7        30.14F WCI  23
$$
MNZ012-019>021-037-281600-
   Northeast Minnesota

CITY           SKY/WX    TMP DP  RH WIND       PRES   REMARKS
DULUTH         SUNNY     31  10  41 S10       30.19S WCI  22
ELY            SUNNY     28  10  47 S8        30.17F WCI  20
HIBBING        SUNNY     26  13  57 VRB3      30.18S
EVELETH        SUNNY     28  14  54 CALM      30.19S
DULUTH HARBOR  SUNNY     28  10  47 CALM      30.25F
TWO HARBORS    SUNNY     32  18  55 SW3       30.20S
SILVER BAY     SUNNY     30  18  59 CALM      30.20S
GRAND MARAIS     N/A     28  16  60 SW6       30.25R WCI  22
G MARAIS ARPRT SUNNY     25   9  50 SW5       30.17S WCI  19
$$
MNZ029>031-032-039>041-046>048-054>057-064-281600-
   West Central Minnesota

CITY           SKY/WX    TMP DP  RH WIND       PRES   REMARKS
FERGUS FALLS   CLOUDY    32  21  64 S15       30.15F WCI  22
WHEATON        PTSUNNY   30  27  86 SE14      30.15F WCI  20
MORRIS         CLOUDY    32  27  80 S15       30.14S WCI  22
ALEXANDRIA     SUNNY     32  22  66 S13       30.15F WCI  22
ELBOW LAKE     FAIR      33  25  74 S15       30.13F WCI  22
WADENA         SUNNY     30  19  64 S14       30.13F WCI  20
GLENWOOD       FAIR      32  23  69 S14       30.16F WCI  22
APPLETON       PTSUNNY   34  27  75 S12G17    30.15F WCI  25
BENSON         MOSUNNY   34  25  69 S14       30.16F WCI  24
ORTONVILLE     CLOUDY    32  27  80 SE10      30.14S WCI  24
MADISON        CLOUDY    34  27  75 S15       30.15F WCI  24
WILLMAR        FAIR      34  25  69 SE12      30.19F WCI  25
$$
MNZ033>034-036-042>043-049>051-058-059-281600-
   Central Minnesota

CITY           SKY/WX    TMP DP  RH WIND       PRES   REMARKS
ST CLOUD       SUNNY     30  16  56 SE9       30.21S WCI  22
SAUK CENTRE    FAIR      32  22  66 SE9       30.18S WCI  24
PAYNESVILLE    SUNNY     28  19  70 E9        30.19F WCI  19
AITKIN         SUNNY     34   7  32 S9        30.17F WCI  26
PINE RIVER     SUNNY     28  14  54 S8        30.19S WCI  20
BRAINERD       SUNNY     32  12  43 S10       30.18F WCI  24
STAPLES        SUNNY     30  16  55 SE10      30.16F WCI  21
LONG PRAIRIE   FAIR      32  21  64 SE10      30.17S WCI  24
LITTLE FALLS   SUNNY     30  16  55 S7        30.20S WCI  23
LITCHFIELD     SUNNY     32  21  64 SE5       30.20F WCI  27
BUFFALO        SUNNY     30  16  55 S5        30.23S WCI  25
MAPLE LAKE     SUNNY     33  22  64 SE7       30.22S WCI  26
$$
MNZ037-044-045-052-053-281600-
   East Central Minnesota

CITY           SKY/WX    TMP DP  RH WIND       PRES   REMARKS
PRINCETON      SUNNY     34  14  44 S8        30.22F WCI  27
MORA           SUNNY     32  14  47 S8        30.24S WCI  25
CAMBRIDGE      SUNNY     34  16  47 S6        30.21F WCI  29
RUSH CITY      SUNNY     31  14  50 S8        30.24F WCI  23
MOOSE LAKE     SUNNY     32  12  43 CALM      30.20F
HINCKLEY       FAIR      32  18  55 S12       30.23F WCI  23
CLOQUET        SUNNY     30  10  43 S5        30.20S WCI  25
MCGREGOR       SUNNY     32  12  43 S7        30.20S WCI  26
$$
MNZ071>073-080-081-089-090-097-098-281600-
   Southwest Minnesota

CITY           SKY/WX    TMP DP  RH WIND       PRES   REMARKS
MONTEVIDEO     CLOUDY    34  27  75 S10       30.18S WCI  26
GRANITE FALLS  CLOUDY    33  26  75 SE13      30.19S WCI  24
CANBY          CLOUDY    33  28  80 SE9       30.15F WCI  26
MARSHALL       CLOUDY    30  25  80 S10       30.17S WCI  21
REDWOOD FALLS  CLOUDY    33  26  75 SE10      30.19F WCI  25
OLIVIA         MOSUNNY   30  27  86 SE9       30.18S WCI  22
PIPESTONE      MOSUNNY   30  27  86 S13       30.12F WCI  20
WINDOM         CLOUDY    30  25  80 SE9       30.18S WCI  22
WORTHINGTON    CLOUDY    34  25  69 SE12      30.17S WCI  25
JACKSON        CLOUDY    32  27  80 SE8       30.18F WCI  25
TRACY          CLOUDY    31  28  86 S8        30.16F WCI  24
SLAYTON        CLOUDY    31  27  86 SE10      30.16S WCI  22
$$
MNZ065>067-074>077-082>085-091>093-281600-
   South Central Minnesota

CITY           SKY/WX    TMP DP  RH WIND       PRES   REMARKS
MANKATO        SUNNY     30  18  59 S9        30.23R WCI  22
NEW ULM        CLOUDY    34  19  55 S9        30.21S WCI  26
ST JAMES       CLOUDY    34  23  64 SE8       30.22S WCI  27
FAIRMONT       CLOUDY    30  18  59 S10       30.20S WCI  21
GLENCOE        SUNNY     30  20  67 SE6       30.22S WCI  24
FARIBAULT      SUNNY     30  16  55 SE9       30.24S WCI  22
OWATONNA       SUNNY     28  16  59 SE10      30.23S WCI  19
WASECA         SUNNY     32  19  59 SE7       30.24S WCI  26
ALBERT LEA     SUNNY     34  18  51 S8        30.23R WCI  27
$$
MNZ078>079-086>088-094>096-281600-
   Southeast Minnesota

CITY           SKY/WX    TMP DP  RH WIND       PRES   REMARKS
ROCHESTER      SUNNY     25  13  60 SE12      30.26R WCI  14
RED WING       SUNNY     32  12  43 S5        30.27S WCI  27
STANTON        SUNNY     30  13  49 SE6       30.24F WCI  24
DODGE CENTER   SUNNY     25  16  68 SE7       30.24R WCI  17
WINONA         SUNNY     32  19  59 CALM      30.30S
AUSTIN         SUNNY     28  18  64 S7        30.24S WCI  21
PRESTON        SUNNY     26  11  53 SE7       30.27S WCI  19
$$
ABBREVIATIONS USED IN REMARKS
   TC - TEMPERATURES IN CELSIUS
  WCI - WIND CHILL INDEX
   HX - HEAT INDEX
  VSB - VISIBILITY
$$


USA.gov is the U.S. government's official web portal to all federal, state and local government web resources and services.